Regional Weather Roundup
Issued by NWS

Home | Current Version | Previous Version | Graphics & Text | Print | Product List | Glossary On
Versions: 1 2 3 4 5 6 7 8 9 10 11 12 13 14 15 16 17 18 19 20 21 22 23 24 25 26 27 28 29 30 31 32 33 34 35 36 37 38 39 40 41 42 43 44 45 46 47 48 49 50
000
ASUS45 KABQ 211610
RWRNM
NEW MEXICO REGIONAL WEATHER ROUNDUP
NATIONAL WEATHER SERVICE ALBUQUERQUE NM
900 AM MST SAT JAN 21 2017

NOTE: "FAIR" MEANS FEW OR NO CLOUDS BELOW 12,000 FEET AGL WITH NO
       SIGNIFICANT WEATHER OR OBSTRUCTIONS TO VISION.

      THIS PRODUCT IS RELEASED AS TWO VERSIONS.  ONE VERSION NEAR
      THE TOP OF THE HOUR CONTAINING PRELIMINARY DATA FROM ALBUQUERQUE
      AND OTHER STATIONS.  A FINAL VERSION WITH ADDITIONAL DATA IS
      ISSUED ABOUT 10 MINUTES AFTER THE HOUR.

NMZ501-503-504-510>518-211700-
NORTHWEST PLATEAU/NORTHCENTRAL MOUNTAINS

CITY           SKY/WX    TMP DP  RH WIND       PRES   REMARKS
FARMINGTON     LGT SNOW  32  31  96 W14       29.38R VSB 1   WCI  22
LOS ALAMOS     SNOW      30  30 100 SW18G29   29.42R VSB 1/2 WCI  18
SANTA FE       LGT SNOW  33  30  88 SW21G29   29.43R FOG     WCI  21
TAOS           CLOUDY    30  23  74 SW9       29.40R WCI  22
ANGEL FIRE     FLURRIES  29  22  76 SW9G20    29.39S WCI  21

$$
NMZ402-403-502-505>509-211700-
WESTCENTRAL MOUNTAINS/SOUTHWEST MOUNTAINS

CITY           SKY/WX    TMP DP  RH WIND       PRES   REMARKS
GALLUP         MIX PCPN  29  25  85 SW26G33   29.47R FOG     WCI  14
GRANTS         PTSUNNY   32  24  71 W15G25    29.48S WCI  22
SILVER CITY    LGT RAIN  34  32  92 W14       29.62R WCI  25

$$
NMZ407-409-411-412-211700-
SOUTHERN DESERTS

CITY           SKY/WX    TMP DP  RH WIND       PRES   REMARKS
DEMING         FAIR      42  35  76 W17G31    29.62R
LAS CRUCES     CLOUDY    41  37  85 W20G28    29.63R
HOLLOMAN AFB   CLOUDY    44  35  73 S10       29.60R
ALAMOGORDO     FAIR      43  37  81 S16       29.58R
T OR C         FAIR      41  35  79 W6        29.54R

$$
NMZ519>523-211700-
CENTRAL VALLEYS/CENTRAL HIGHLANDS

CITY           SKY/WX    TMP DP  RH WIND       PRES   REMARKS
ALBUQUERQUE    PTSUNNY   33  31  92 E12       29.50R WCI  24
DOUBLE EAGLE   PTSUNNY   32  28  86 S9        29.47R WCI  24
MORIARTY ARPT  SNOW      32  28  87 W13       29.48R VSB 1/4 WCI  22
CLINES CORNERS SNOW      30  29  96 W43G55    29.45R VSB 1/4 WCI  13
BELEN          FAIR      36  32  84 SW7       29.50R WCI  31
SOCORRO        FAIR      38  35  88 E5        29.51R WCI  34

$$
NMZ524>526-539-540-211700-
SOUTHCENTRAL MOUNTAINS

CITY           SKY/WX    TMP DP  RH WIND       PRES   REMARKS
RUIDOSO        FAIR      36  25  64 W17G25    29.48S WCI  25

$$
NMZ527>531-211700-
NORTHEAST HIGHLANDS/NORTHEAST PLAINS

CITY           SKY/WX    TMP DP  RH WIND       PRES   REMARKS
LAS VEGAS      FAIR      34  30  85 S23       29.38S WCI  22
RATON          CLOUDY    29  23  78 NE5       29.37S WCI  24
CLAYTON        FAIR      39  34  82 SW14      29.36F WCI  31

$$
NMZ532>537-211700-
EASTCENTRAL PLAINS

CITY           SKY/WX    TMP DP  RH WIND       PRES   REMARKS
TUCUMCARI      PTSUNNY   43  37  79 SW13      29.41F
CANNON AFB     CLOUDY    44  44 100 W14       29.45S
CLOVIS AIRPORT PTSUNNY   45  37  76 SW16      29.45S

$$
NMZ028-029-538-211700-
SOUTHEAST PLAINS

CITY           SKY/WX    TMP DP  RH WIND       PRES   REMARKS
ROSWELL        FAIR      47  36  65 S16       29.46F
ARTESIA        FAIR      50  37  62 SW32G40   29.50F
CARLSBAD       FAIR      51  38  60 SW17G25   29.53S
HOBBS          MOSUNNY   46  41  81 S10       29.55R


$$




USA.gov is the U.S. government's official web portal to all federal, state and local government web resources and services.